Regional Weather Roundup
Issued by NWS State College, PA

Home | Current Version | Previous Version | Text Only | Print | Product List | Glossary On
Versions: 1 2 3 4 5 6 7 8 9 10 11 12 13 14 15 16 17 18 19 20 21 22 23 24 25 26 27 28 29 30 31 32 33 34 35 36 37 38 39 40 41 42 43 44 45 46 47 48 49 50
107
ASUS41 KCTP 172003
RWRCTP

REGIONAL WEATHER ROUNDUP
NATIONAL WEATHER SERVICE STATE COLLEGE PA
400 PM EDT TUE OCT 17 2017

Note: "fair" indicates few or no clouds below 12,000 feet with no
significant weather and/or obstructions to visibility.

* = STATION THAT DOES NOT REPORT PRECIPITATION /E.G. RAIN...SNOW...ETC/
    THUNDER OR FOG.

PAZ002>004-007>009-013>016-020>023-029>032-172100-
WESTERN PENNSYLVANIA

CITY           SKY/WX    TMP DP  RH WIND       PRES   REMARKS
ERIE           SUNNY     63  42  46 SW13G23   30.19F
MEADVILLE      SUNNY     61  39  44 SW14G21   30.23S
FRANKLIN*      NOT AVBL
NEW CASTLE     FAIR      63  38  39 SW9G17    30.25F
BEAVER COUNTY  SUNNY     64  39  39 SW9       30.26F
BUTLER*        SUNNY     61  40  45 SW8       30.26F
PITTSBURGH INT MOSUNNY   62  37  39 SW8       30.26F
PITTSBURGH     SUNNY     62  36  37 S13       30.26F
INDIANA*       SUNNY     59  39  47 SW10      30.29F
LATROBE        SUNNY     59  37  44 W16       30.29F
WASHINGTON CO* SUNNY     62  39  42 SW8       30.30F
$$

PAZ004>006-010>012-017>019-024>028-033>037-041-042-045-046-049>053-172100-
CENTRAL PENNSYLVANIA

CITY           SKY/WX    TMP DP  RH WIND       PRES   REMARKS
BRADFORD       SUNNY     58  37  45 SW13      30.21F
DUBOIS         SUNNY     58  37  45 SW10      30.24F
CLEARFIELD     SUNNY     59  36  42 SW10      30.25F
JOHNSTOWN      SUNNY     56  35  45 W8        30.27S
ALTOONA        SUNNY     63  34  33 W7        30.27S
STATE COLLEGE  SUNNY     61  36  39 W12       30.25F
WILLIAMSPORT   SUNNY     64  34  32 W8        30.23F
SELINSGROVE    SUNNY     60  36  40 SW5       30.26F
FT INDIANTOWN  SUNNY     60  30  32 W5        30.27S
CAPITAL CITY   SUNNY     61  31  32 W7        30.28F
HARRISBURG     SUNNY     62  31  31 CALM      30.27F
YORK           SUNNY     59  33  37 W3        30.28F
$$

PAZ038>040-043-044-047-048-054-055-060>062-067>071-172100-
EASTERN PENNSYLVANIA

CITY           SKY/WX    TMP DP  RH WIND       PRES   REMARKS
SCRANTON       SUNNY     59  27  29 SW6       30.24F
MOUNT POCONO   SUNNY     54  24  31 W10       30.23F
ALLENTOWN      SUNNY     60  36  40 SW9       30.26F
QUAKERTOWN*    CLEAR     59  32  36 SW7       30.28S
READING        SUNNY     61  33  35 W8        30.27F
LANCASTER      SUNNY     59  34  39 NW7       30.28F
COATESVILLE    CLEAR     57  30  35 CALM      30.29F
POTTSTOWN      SUNNY     58  31  35 W5        30.29F
BLUE BELL      SUNNY     59  34  38 SW3       30.29F
DOYLESTOWN     SUNNY     59  34  39 S8        30.26F
WILLOW GROVE   NOT AVBL
NORTH PHILA    SUNNY     63  34  33 NW5       30.29F
PHILADELPHIA   SUNNY     60  32  34 S7        30.29F
$$




USA.gov is the U.S. government's official web portal to all federal, state and local government web resources and services.